GW4358 Weather Reports


time (UTC)temp
C
wind
direction
speed
KPH
gust
KPH
rain 1hr
cm
rain 24hr
cm
rain mn
cm
humidity
%
barometer
mb
20260504234509 -13 212 1.6 11.3 0.00 0.33 0.03 1008.9
20260504233005 -13 276 4.8 16.1 0.03 0.33 0.03 1008.9
20260504231500 -13 264 6.4 17.7 0.03 0.33 0.03 1009.1
20260504230058 -14 246 9.7 20.9 0.03 0.33 0.03 1008.9
20260504224552 -13 259 8.0 20.9 0.03 0.33 0.03 1009.1
20260504223047 -13 217 6.4 20.9 0.00 0.30 0.00 1009.1
20260504221543 -13 232 6.4 25.7 0.00 0.30 0.00 1009.3
20260504220039 -13 261 9.7 22.5 0.00 0.30 0.00 1009.3
20260504214534 -13 270 6.4 25.7 0.00 0.30 0.00 1009.3
20260504211559 -13 283 9.7 25.7 0.03 0.33 0.25 1009.6
20260504210107 -13 218 8.0 22.5 0.00 0.30 0.23 1009.8
20260504204558 -13 224 8.0 20.9 0.03 0.33 0.23 1009.9
20260504203102 -12 250 6.4 33.8 0.03 0.33 0.23 1010.1
20260504201542 -12 286 8.0 22.5 0.03 0.33 0.23 1010.3
20260504200038 -13 260 4.8 24.1 0.05 0.33 0.23 1010.5
20260504194535 -13 221 9.7 20.9 0.03 0.33 0.20 1010.8
20260504193029 -12 213 6.4 20.9 0.03 0.33 0.20 1011.0
20260504191526 -12 224 6.4 20.9 0.03 0.33 0.20 1011.1
20260504190021 -12 207 4.8 14.5 0.00 0.30 0.18 1011.3
20260504184515 -12 220 4.8 19.3 0.03 0.30 0.18 1011.4
20260504183011 -12 277 1.6 14.5 0.03 0.30 0.18 1011.5
20260504181507 -13 250 3.2 17.7 0.03 0.30 0.18 1011.6
20260504180006 -14 217 3.2 19.3 0.03 0.30 0.18 1011.8
20260504174601 -13 245 8.0 20.9 0.00 0.30 0.15 1012.1
20260504173057 -12 271 4.8 19.3 0.00 0.30 0.15 1012.3
20260504171549 -12 216 3.2 16.1 0.00 0.30 0.15 1012.5
20260504081511 -15 223 4.8 16.1 0.03 0.38 0.05 1013.1
20260504050014 -15 185 6.4 16.1 0.00 0.36 0.00 1014.7
20260504044514 -15 242 4.8 14.5 0.03 0.36 0.36 1014.7
20260504043005 -15 232 4.8 12.9 0.03 0.36 0.36 1014.8
20260504041601 -15 248 4.8 14.5 0.03 0.36 0.36 1015.0
20260504040100 -15 232 4.8 11.3 0.03 0.36 0.36 1015.0
20260504034552 -15 228 4.8 12.9 0.00 0.33 0.33 1015.2
20260504033055 -15 213 4.8 11.3 0.00 0.33 0.33 1015.3
20260504031547 -15 211 1.6 6.4 0.00 0.33 0.33 1015.4
20260504030042 -15 212 0.0 8.0 0.00 0.33 0.33 1015.5
20260504024535 -15 215 0.0 6.4 0.00 0.33 0.33 1015.4
20260504023030 -15 217 1.6 8.0 0.00 0.33 0.33 1015.4
20260504021528 -15 222 3.2 11.3 0.00 0.33 0.33 1015.4
20260504020028 -15 213 3.2 9.7 0.03 0.33 0.33 1015.3
20260504014533 -15 222 3.2 9.7 0.03 0.33 0.33 1015.0
20260504013014 -15 219 1.6 9.7 0.03 0.33 0.33 1014.9
20260504011508 -15 225 1.6 8.0 0.03 0.33 0.33 1014.8
20260504010004 -15 225 3.2 6.4 0.00 0.30 0.30 1014.7
20260504004559 -15 221 3.2 9.7 0.00 0.30 0.30 1014.7
20260504003054 -15 245 1.6 4.8 0.00 0.30 0.30 1014.6
20260504001600 -15 245 0.0 4.8 0.00 0.30 0.30 1014.7
20260504000049 -15 244 0.0 6.4 0.03 0.30 0.30 1015.0